Weather History for Pinedale, WY

Change the Weather History Date:

Wednesday, April 17, 2013

  Actual Average (KBPI) Record (KBPI)
Temperature  
Mean Temperature 22 °F 38 °F  
Max Temperature 32 °F 53 °F 74 °F (1994)
Min Temperature 12 °F 22 °F 11 °F (1980)
Degree Days  
Heating Degree Days 43 27  
Month to date heating degree days 503  
Since 1 July heating degree days 9198  
Cooling Degree Days 0 0  
Month to date cooling degree days 0  
Year to date cooling degree days 0  
Moisture  
Dew Point 12 °F    
Average Humidity 67    
Maximum Humidity 100    
Minimum Humidity 32    
Precipitation  
Precipitation 0.00 in 0.02 in 0.15 in (1995)
Month to date precipitation 0.27  
Year to date precipitation 1.37  
Sea Level Pressure  
Sea Level Pressure 29.98 in    
Wind  
Wind Speed 8 mph (West)    
Max Wind Speed 20 mph    
Max Gust Speed 31 mph    
Visibility 8 miles    
Events Snow    
T = Trace of Precipitation, MM = Missing Value Source: NWS Daily Summary

Daily Weather History Graph

Daily Weather History Graph

Search for Another Location

Airport:

Trip Planner

Search our weather history database for the weather conditions in past years. The results will help you decide how hot, cold, wet, or windy it might be!

Date:

Astronomy

Apr. 17, 2013 Rise Set
Actual Time 6:33 AM MDT 8:04 PM MDT
Civil Twilight 6:04 AM MDT 8:33 PM MDT
Nautical Twilight 5:28 AM MDT 9:09 PM MDT
Astronomical Twilight 4:50 AM MDT 9:47 PM MDT
Moon 11:48 AM MDT (4/17) 1:47 AM MDT (4/17)
Length of Visible Light 14h 29m
Length of Day
13h 30m
Waxing Crescent, 43% of the Moon is Illuminated
Apr 17
Waxing Crescent
Apr 18
First Quarter
Apr 25
Full
May 2
Last Quarter
May 9
New

Hourly Weather History & Observations

Time (MDT) Temp. Windchill Dew Point Humidity Pressure Visibility Wind Dir Wind Speed Gust Speed Precip Events Conditions
12:15 AM 19.4 °F 7.9 °F 12.2 °F 74% 29.97 in 10.0 mi SW 10.4 mph - N/A   Scattered Clouds
12:35 AM 19.4 °F 10.4 °F 12.2 °F 74% 29.97 in 10.0 mi SW 6.9 mph - N/A   Overcast
12:55 AM 19.4 °F 7.9 °F 12.2 °F 74% 29.97 in 10.0 mi SW 10.4 mph - N/A   Overcast
1:15 AM 19.4 °F 7.9 °F 12.2 °F 74% 29.97 in 10.0 mi SW 10.4 mph 18.4 mph N/A   Overcast
1:35 AM 17.6 °F 6.4 °F 12.2 °F 79% 29.97 in 10.0 mi SW 9.2 mph - N/A   Overcast
1:55 AM 17.6 °F 6.4 °F 12.2 °F 79% 29.97 in 10.0 mi SW 9.2 mph - N/A   Overcast
2:15 AM 17.6 °F 7.3 °F 12.2 °F 79% 29.97 in 10.0 mi WSW 8.1 mph - N/A   Overcast
2:35 AM 17.6 °F 12.3 °F 12.2 °F 79% 29.97 in 10.0 mi West 3.5 mph - N/A   Overcast
2:55 AM 17.6 °F - 12.2 °F 79% 29.97 in 10.0 mi Calm Calm - N/A Snow Light Snow
3:15 AM 17.6 °F 12.3 °F 12.2 °F 79% 29.96 in 10.0 mi West 3.5 mph - N/A Snow Light Snow
3:35 AM 17.6 °F 10.7 °F 12.2 °F 79% 29.96 in 7.0 mi West 4.6 mph - N/A Snow Light Snow
3:55 AM 17.6 °F - 12.2 °F 79% 29.96 in 10.0 mi Calm Calm - N/A   Overcast
4:15 AM 17.6 °F - 12.2 °F 79% 29.95 in 10.0 mi Calm Calm - N/A   Overcast
4:35 AM 17.6 °F 12.3 °F 12.2 °F 79% 29.95 in 10.0 mi WNW 3.5 mph - N/A Snow Light Snow
4:55 AM 17.6 °F 12.3 °F 12.2 °F 79% 29.95 in 7.0 mi West 3.5 mph - N/A Snow Light Snow
5:15 AM 15.8 °F 10.2 °F 12.2 °F 86% 29.95 in 5.0 mi West 3.5 mph - N/A Snow Light Snow
5:35 AM 15.8 °F - 12.2 °F 86% 29.95 in 10.0 mi Calm Calm - N/A   Mostly Cloudy
5:55 AM 14.0 °F - 14.0 °F 100% 29.95 in 10.0 mi Calm Calm - N/A   Overcast
6:15 AM 15.8 °F - 12.2 °F 86% 29.95 in 10.0 mi Calm Calm - N/A   Overcast
6:35 AM 14.0 °F 8.2 °F 12.2 °F 93% 29.95 in 10.0 mi NW 3.5 mph - N/A   Mostly Cloudy
6:55 AM 12.2 °F 4.3 °F 10.4 °F 92% 29.95 in 10.0 mi NW 4.6 mph - N/A   Mostly Cloudy
7:15 AM 14.0 °F 8.2 °F 12.2 °F 93% 29.95 in 10.0 mi NW 3.5 mph - N/A   Mostly Cloudy
7:35 AM 15.8 °F 10.2 °F 12.2 °F 86% 29.96 in 10.0 mi NW 3.5 mph - N/A   Overcast
8:15 AM 17.6 °F - 12.2 °F 79% 29.97 in 10.0 mi Calm Calm - N/A   Mostly Cloudy
8:35 AM 19.4 °F 14.3 °F 10.4 °F 68% 29.97 in 10.0 mi WNW 3.5 mph - N/A   Scattered Clouds
8:55 AM 19.4 °F 8.6 °F 8.6 °F 63% 29.97 in 10.0 mi West 9.2 mph - N/A   Mostly Cloudy
9:15 AM 19.4 °F 10.4 °F 8.6 °F 63% 29.96 in 10.0 mi NW 6.9 mph - N/A   Scattered Clouds
9:35 AM 21.2 °F 14.9 °F 10.4 °F 63% 29.95 in 10.0 mi NW 4.6 mph - N/A   Clear
9:55 AM 23.0 °F 15.8 °F 10.4 °F 59% 29.95 in 10.0 mi NW 5.8 mph - N/A   Clear
10:15 AM 24.8 °F 16.9 °F 8.6 °F 50% 29.95 in 10.0 mi WNW 6.9 mph - N/A   Clear
10:35 AM 24.8 °F 16.9 °F 6.8 °F 46% 29.95 in 10.0 mi NW 6.9 mph - N/A   Clear
10:55 AM 26.6 °F 16.2 °F 8.6 °F 47% 29.95 in 10.0 mi West 11.5 mph 17.3 mph N/A   Clear
11:15 AM 26.6 °F 18.2 °F 8.6 °F 47% 29.95 in 10.0 mi WNW 8.1 mph 17.3 mph N/A   Clear
11:35 AM 28.4 °F 18.5 °F 6.8 °F 40% 29.95 in 10.0 mi NW 11.5 mph 18.4 mph N/A   Clear
11:55 AM 30.2 °F 22.6 °F 5.0 °F 34% 29.95 in 10.0 mi NW 8.1 mph 24.2 mph N/A   Scattered Clouds
12:15 PM 30.2 °F 19.8 °F 5.0 °F 34% 29.94 in 10.0 mi West 13.8 mph 21.9 mph N/A   Scattered Clouds
12:35 PM 30.2 °F 19.8 °F 5.0 °F 34% 29.94 in 10.0 mi NW 13.8 mph 20.7 mph N/A   Scattered Clouds
12:55 PM 30.2 °F 22.6 °F 5.0 °F 34% 29.93 in 10.0 mi North 8.1 mph 17.3 mph N/A   Scattered Clouds
1:15 PM 30.2 °F 25.4 °F 5.0 °F 34% 29.93 in 10.0 mi North 4.6 mph - N/A   Mostly Cloudy
1:35 PM 30.2 °F 24.3 °F 5.0 °F 34% 29.93 in 10.0 mi SW 5.8 mph 16.1 mph N/A   Overcast
1:55 PM 32.0 °F 24.2 °F 5.0 °F 32% 29.93 in 10.0 mi NNW 9.2 mph 18.4 mph N/A   Overcast
2:35 PM 30.2 °F 19.8 °F 8.6 °F 40% 29.95 in 10.0 mi NW 13.8 mph 21.9 mph N/A   Overcast
2:55 PM 30.2 °F 19.3 °F 8.6 °F 40% 29.95 in 10.0 mi WNW 15.0 mph 23.0 mph N/A   Overcast
3:15 PM 32.0 °F 21.6 °F 8.6 °F 38% 29.95 in 10.0 mi WNW 15.0 mph 21.9 mph N/A   Overcast
3:35 PM 32.0 °F 24.8 °F 10.4 °F 41% 29.95 in 10.0 mi West 8.1 mph 21.9 mph N/A   Overcast
3:55 PM 32.0 °F 23.0 °F 10.4 °F 41% 29.95 in 10.0 mi West 11.5 mph 24.2 mph N/A   Overcast
4:15 PM 30.2 °F 19.3 °F 8.6 °F 40% 29.95 in 10.0 mi NW 15.0 mph 23.0 mph N/A   Overcast
4:35 PM 30.2 °F 18.5 °F 10.4 °F 44% 29.96 in 10.0 mi WNW 17.3 mph - N/A   Overcast
4:55 PM 32.0 °F 20.1 °F 8.6 °F 38% 29.97 in 10.0 mi NW 19.6 mph 31.1 mph N/A   Overcast
5:15 PM 32.0 °F 20.8 °F 8.6 °F 38% 29.97 in 10.0 mi WNW 17.3 mph 24.2 mph N/A   Overcast
5:35 PM 32.0 °F 21.2 °F 8.6 °F 38% 29.97 in 10.0 mi WNW 16.1 mph 24.2 mph N/A   Overcast
5:55 PM 32.0 °F 20.5 °F 8.6 °F 38% 29.98 in 10.0 mi NW 18.4 mph 23.0 mph N/A   Overcast
6:15 PM 32.0 °F 20.8 °F 10.4 °F 41% 29.99 in 10.0 mi NW 17.3 mph 23.0 mph N/A   Overcast
6:35 PM 30.2 °F 18.5 °F 8.6 °F 40% 30.01 in 10.0 mi NW 17.3 mph 23.0 mph N/A   Overcast
6:55 PM 24.8 °F 16.1 °F 17.6 °F 74% 30.03 in 10.0 mi East 8.1 mph - N/A   Overcast
7:15 PM 23.0 °F 9.2 °F 17.6 °F 80% 30.03 in 7.0 mi SE 17.3 mph 21.9 mph N/A   Overcast
7:35 PM 21.2 °F 8.9 °F 19.4 °F 93% 30.05 in 2.5 mi ESE 12.7 mph - N/A Snow Light Snow
7:55 PM 21.2 °F 10.9 °F 19.4 °F 93% 30.05 in 1.5 mi ESE 9.2 mph 17.3 mph N/A Snow Light Snow
8:15 PM 19.4 °F 7.2 °F 19.4 °F 100% 30.06 in 2.0 mi SE 11.5 mph - N/A Snow Light Snow
8:55 PM 19.4 °F 10.4 °F 17.6 °F 93% 30.08 in 3.0 mi SSE 6.9 mph - N/A Snow Light Snow
9:15 PM 19.4 °F 12.8 °F 19.4 °F 100% 30.09 in 2.0 mi SE 4.6 mph - N/A Snow Light Snow
9:35 PM 19.4 °F 11.5 °F 17.6 °F 93% 30.09 in 2.5 mi SSE 5.8 mph - N/A Snow Light Snow
9:55 PM 19.4 °F 8.6 °F 17.6 °F 93% 30.09 in 1.5 mi SSE 9.2 mph - N/A Snow Light Snow
10:15 PM 19.4 °F 8.6 °F 17.6 °F 93% 30.10 in 2.0 mi SSE 9.2 mph - N/A Snow Light Snow
10:35 PM 19.4 °F 9.5 °F 17.6 °F 93% 30.10 in 1.8 mi SSE 8.1 mph - N/A Snow Light Snow
10:55 PM 17.6 °F 12.3 °F 17.6 °F 100% 30.11 in 2.5 mi SSE 3.5 mph - N/A Snow Light Snow
11:15 PM 17.6 °F 12.3 °F 15.8 °F 93% 30.11 in 2.5 mi South 3.5 mph - N/A Snow Light Snow
11:35 PM 17.6 °F 8.2 °F 15.8 °F 93% 30.11 in 3.0 mi South 6.9 mph - N/A Snow Light Snow
11:55 PM 17.6 °F 12.3 °F 15.8 °F 93% 30.11 in 3.0 mi South 3.5 mph - N/A Snow Light Snow